スペースウォッチ-パンスターズ彗星

497P/Spacewatch-PanSTARRS (2025)

English version
Home page
Updated on August 9, 2025

---------------------------------------------------------------------

・ プロフィール

符号 497P/2024 T4
検出日 2024年10月5日、10月9日
検出光度 21.7等、21.8等
検出者 J. K. Hogan (Mt. Lemmon), Pan-STARRS 2 telescope (Haleakala)

・ 軌道要素

Epoch 2024 Oct. 17.0 TT = JDT 2460600.5                                         
T 2025 Feb. 15.40950 TT                                 Rudenko                 
q   2.0751565            (2000.0)            P               Q                  
n   0.07410897     Peri.   32.42911     +0.30121901     -0.94630026             
a   5.6133511      Node    40.38530     +0.83166486     +0.20048680             
e   0.6303177      Incl.   10.43937     +0.46647687     +0.25361558             
P  13.3                                                                         
From 141 observations 2011 Oct. 24-2024 Oct. 10, mean residual 0".7.            

・ 光度変化

        m1 = 12 + 5 logΔ + 20 log r

---------------------------------------------------------------------

軌道要素はM.P.E.C. 2024-U43に掲載されたものです。
光度グラフはComet for Windowsで作成したものです。

---------------------------------------------------------------------

Copyright(C) Seiichi Yoshida (comet@aerith.net). All rights reserved.